SCP
0 0 0 0 0 0 0 0 0 -0 0 0 -0 0 0 0 -0 0 0 -0 0 0 0 0 0 0 0 0 0 0 0 0 0 0 0 0 0 0
0 0 0 0 0 0 0 0 0 0 -0 -0 0 0 0 0 0 0 0 0 0 0 0 0 0 0 0 0 0 0 0 0 0 0 0 0 0 0
0 0 0 0 0 0 0 0 0 0 -0 -0 0 0 0 0 0 0 0 0 0 0 0 0 0 0 0 0 0 0 0 0 0 0 0 0 0 0
0 0 0 0 1 0 0 0 0 0 0 0 0 0 0 0 0 0 0 0 0 0 0 0 0 0 0 0 0 0 0 0 0 0 0 0 0 0
0 0 0 0 0 0 0 -0 -0 0 1 1 0 -0 1 0 1 0 0 0 0 0 0 0 0 0 0 0 0 0 0 0 0 0 0 0 0 0
0 0 0 0 0 1 0 0 0 0 0 0 0 -0 0 1 1 1 1 1 1 0 0 0 0 0 0 0 0 0 0 0 0 0 0 0 0 0
0 0 0 0 0 0 0 0 0 1 1 1 0 0 0 1 1 1 1 1 1 0 0 0 0 0 0 0 0 0 0 0 0 0 0 0 0 0
0 0 0 0 0 0 0 0 0 1 1 1 1 1 1 1 1 1 1 1 1 1 1 0 0 0 0 0 0 0 0 0 0 0 0 0 0 0
0 1 0 0 0 1 0 0 0 0 0 1 1 1 1 1 1 1 1 2 1 1 2 0 0 0 0 0 0 0 0 0 0 0 0 0 0 0
1 1 1 1 1 1 1 1 1 1 0 0 1 1 1 1 1 1 1 1 1 0 0 0 0 0 0 0 0 0 0 0 0 0 0 0 0 0
1 1 1 1 0 0 1 1 1 1 0 0 0 0 0 0 0 0 0 1 1 0 0 0 0 0 0 0 0 0 0 0 0 0 0 0 0 0
2 2 0 0 0 0 0 1 1 1 0 0 0 0 0 0 0 0 0 0 0 0 0 0 0 0 0 0 0 0 0 0 0 0 0 0 0 0
2 3 2 0 0 0 0 0 1 1 0 0 0 0 0 0 0 0 0 0 0 0 0 0 0 0 0 0 0 0 0 0 0 0 0 0 0 0
1 0 0 0 0 0 0 0 0 0 0 0 0 0 0 0 0 0 0 0 0 0 0 0 0 0 0 0 0 0 0 0 0 0 0 0 0 0
0 0 0 0 0 0 0 0 0 0 0 0 0 0 0 0 0 0 0 0 0 0 0 0 0 0 0 0 0 0 0 0 0 0 0 0 0 0
0 0 0 0 0 0 0 0 0 0 0 0 0 0 0 0 0 0 0 0 0 0 0 0 0 0 0 0 0 0 0 0 0 0 0 0 0 0
0 0 0 0 0 0 0 0 0 0 0 0 0 0 0 0 0 0 0 0 0 0 0 0 0 0 0 0 0 0 0 0 0 0 0 0 0 0
0 0 0 0 0 0 0 0 0 0 0 0 0 0 0 0 0 0 0 0 0 0 0 0 0 0 0 0 -0 0 0 0 0 0 0 0 0 0
0 0 0 0 0 0 0 0 0 0 0 0 0 0 0 0 0 0 0 0 0 0 0 0 0 0 0 0 0 0 0 0 0 0 0 0 0 0
0 0 0 0 0 0 0 0 0 0 0 0 0 0 0 0 0 0 0 0 0 0 0 0 0 0 0 0 0 0 0 0 0 0 0 0 0 0
0 0 0 0 0 0 0 0 0 0 0 0 0 0 0 0 0 0 0 0 0 0 0 0 0 0 0 0 0 0 0 0 0 0 0 0 0 0
0 0 0 0 0 0 0 0 0 0 0 0 0 0 0 0 0 0 0 0 0 0 0 0 0 0 0 0 0 0 0 0 0 0 0 0 0 0
0 0 0 0 0 0 0 0 0 0 0 0 0 0 0 0 0 0 0 0 0 0 0 0 0 0 0 0 0 0 0 0 0 0 0 0 0 0
Wind_Speed_500mb
18 21 16 21 25 22 20 24 28 28 31 18 17 16 8 14 23 18 20 24 20 23 23 19 19 19 19 20 21 24 24 24 24 22 21 21 22 24
22 22 23 22 25 22 22 23 25 27 32 28 26 15 11 15 25 28 24 30 26 24 23 21 21 22 22 22 23 25 26 27 30 28 25 24 25 24
24 27 20 25 26 25 26 29 29 29 33 31 26 30 32 39 28 33 28 28 28 22 22 24 25 25 25 25 26 28 29 29 30 32 30 27 24 23
26 26 27 27 30 26 27 30 31 35 35 36 32 31 35 27 31 27 19 18 34 39 34 29 30 30 29 27 29 31 31 30 31 32 30 30 28 27
30 35 37 28 34 31 37 34 36 30 28 31 33 30 33 30 29 28 24 20 26 39 39 36 32 33 34 33 33 36 38 37 38 37 34 32 27 24
30 37 36 27 34 38 41 42 38 39 36 38 36 34 33 35 39 34 32 29 27 34 43 41 39 37 36 37 39 40 41 42 37 33 31 26 23 20
30 33 32 34 38 41 45 37 36 40 39 40 43 42 46 42 38 29 28 24 28 29 42 42 41 33 29 33 35 38 38 36 30 25 22 17 13 9
31 31 33 42 43 41 40 43 48 50 50 47 42 43 41 36 35 31 32 23 21 15 25 19 26 20 29 31 35 36 35 25 19 21 19 13 11 4
40 37 33 33 37 34 39 44 40 43 48 48 49 46 39 33 31 30 26 28 32 31 33 38 46 49 53 49 48 40 25 16 18 14 15 9 3 3
44 45 47 44 44 47 46 37 38 40 39 31 38 42 45 43 36 35 34 34 39 42 43 45 50 56 60 56 45 32 25 19 24 17 16 10 6 3
40 42 48 43 45 45 42 43 41 43 42 39 43 49 48 51 48 49 41 36 36 47 44 48 53 52 43 39 33 26 15 19 21 23 18 13 9 6
43 44 49 48 52 49 46 44 46 44 46 46 49 58 61 58 53 48 42 45 47 43 34 30 25 20 15 18 16 15 10 13 21 25 19 17 14 9
32 39 43 47 42 44 45 46 48 45 46 45 46 44 34 30 28 32 36 35 37 39 29 18 14 13 15 15 14 14 15 18 22 24 22 22 18 14
32 38 41 44 38 38 39 38 35 33 30 29 31 32 31 27 24 20 16 10 10 13 10 11 14 15 16 15 12 12 18 20 26 24 23 21 22 21
25 31 36 36 32 28 27 23 22 20 22 25 24 20 16 12 7 6 3 4 6 8 9 12 15 12 9 8 8 10 15 21 23 20 18 18 12 13
15 6 13 12 7 5 7 10 8 4 5 5 6 6 6 4 5 5 6 6 3 2 5 7 6 5 2 3 5 7 5 7 10 16 15 12 13 18
5 7 7 8 9 10 10 7 5 2 2 4 7 6 8 9 5 5 6 1 4 14 13 10 13 13 14 7 6 6 10 6 14 7 5 15 18 20
10 10 10 9 8 7 6 4 7 9 9 9 8 5 5 5 5 4 5 7 6 8 6 3 10 3 4 2 11 11 10 7 16 18 13 18 18 17
3 6 6 7 8 7 6 5 6 6 6 6 6 7 6 6 11 7 5 2 4 6 6 7 4 9 17 13 7 15 19 12 15 16 17 18 19 18
4 5 4 4 5 3 5 6 5 7 7 7 6 7 10 7 2 4 6 5 7 8 5 6 7 7 6 11 5 9 13 22 14 18 18 18 20 26
3 6 3 3 6 7 5 5 5 4 6 7 6 6 8 8 7 7 8 9 10 8 8 11 16 18 16 12 13 18 19 15 25 23 13 11 17 19
7 8 7 7 7 6 6 7 7 8 7 7 9 7 6 5 5 6 6 7 7 11 11 8 17 11 9 12 16 16 17 16 18 13 14 21 17 16
8 8 8 8 7 9 10 9 8 6 8 10 9 8 8 6 7 7 8 8 10 10 12 14 15 13 13 14 18 20 11 17 18 27 21 11 10 19
Wind_Direction_500mb
247 262 264 255 271 278 269 275 286 298 303 309 315 245 250 289 280 297 290 299 300 313 315 317 330 331 333 338 344 346 346 347 345 346 346 346 345 350
243 250 252 266 282 284 285 279 281 283 287 294 303 277 258 291 291 293 267 292 294 300 305 304 308 315 320 326 331 332 333 335 338 338 338 338 341 346
252 261 262 264 270 272 277 277 272 275 280 280 294 309 304 294 275 277 284 293 296 296 297 298 298 300 306 311 317 321 324 326 328 329 329 331 331 330
257 257 262 262 269 272 279 275 276 275 282 286 278 283 290 294 290 275 265 269 278 283 291 292 290 290 293 298 306 312 316 317 321 322 322 321 319 321
258 258 260 256 251 256 259 269 278 278 269 274 272 275 281 283 273 282 271 267 250 270 290 293 290 287 288 289 293 301 306 310 311 312 312 311 311 317
260 262 250 254 264 266 274 267 266 265 268 267 268 272 275 274 280 272 276 272 254 268 279 292 299 287 279 278 285 291 294 296 299 302 300 300 311 320
250 249 262 260 250 261 270 276 271 265 269 274 275 275 278 276 278 277 275 289 273 266 270 279 293 297 290 283 281 284 285 289 296 297 306 318 332 329
247 255 255 259 273 283 284 279 269 268 272 273 274 281 282 277 280 276 268 257 273 274 252 263 270 290 286 280 288 286 282 278 282 284 296 283 283 283
263 266 266 264 272 272 278 272 271 271 273 275 275 275 278 277 275 278 276 269 260 254 250 238 235 240 251 266 277 276 260 237 276 255 277 230 206 125
255 257 261 262 263 260 268 276 274 277 275 276 279 271 274 278 274 279 279 278 268 263 258 249 248 240 249 257 262 265 262 256 256 260 203 213 218 159
260 258 254 261 263 270 274 277 278 275 272 277 277 273 268 271 268 279 275 272 261 254 263 259 255 247 250 269 281 285 261 242 248 206 214 233 235 256
254 262 262 263 267 276 277 275 277 276 274 271 270 270 272 271 264 264 263 252 254 257 254 253 268 271 271 282 280 276 245 228 212 206 217 234 244 247
258 261 261 268 271 270 269 271 275 272 271 270 268 271 276 276 260 259 261 260 266 263 271 267 267 256 247 279 289 264 222 215 202 209 223 232 229 202
257 258 265 273 273 269 272 277 273 270 266 261 266 265 264 268 272 275 275 271 276 277 270 272 282 281 271 269 275 258 223 204 208 213 226 234 242 237
261 268 270 270 268 260 263 259 260 257 258 254 258 264 270 270 247 162 227 283 291 296 294 296 292 293 272 275 271 279 229 225 210 222 237 233 241 274
237 248 248 238 264 267 236 227 241 244 245 239 222 151 110 153 203 229 240 224 217 321 359 318 279 280 275 351 338 292 245 135 223 233 225 243 259 256
116 124 138 129 113 99 95 101 119 170 228 230 210 196 201 214 215 227 192 218 42 69 59 64 88 89 94 106 139 33 139 130 206 230 271 249 262 263
124 135 147 144 148 169 183 205 237 240 237 232 229 217 216 182 171 196 150 118 115 125 161 323 62 116 330 91 172 206 247 206 214 224 240 250 265 270
213 199 203 221 225 225 231 237 255 254 215 186 186 178 166 149 143 136 85 104 158 182 183 178 210 271 290 243 220 233 213 208 236 231 262 256 265 268
208 221 233 264 259 243 218 222 196 162 153 165 165 167 141 138 161 212 217 214 205 211 221 254 225 238 264 297 319 282 282 232 240 252 263 258 265 257
119 83 89 55 113 170 179 156 150 138 143 153 166 182 200 192 211 205 226 203 202 221 240 262 230 263 275 293 287 258 260 308 243 233 245 272 276 289
169 169 169 172 172 166 157 173 163 177 174 165 187 196 202 210 249 250 237 246 249 243 254 252 298 298 287 279 287 285 274 266 304 301 289 268 268 278
148 165 163 168 172 175 176 175 189 195 198 191 201 196 217 215 231 243 246 261 265 266 268 270 268 280 293 286 290 286 284 268 283 270 272 262 271 293
Wind_Speed_850mb
18 21 16 21 25 22 20 24 28 28 31 18 17 16 8 14 23 18 20 24 20 23 23 19 19 19 19 20 21 24 24 24 24 22 21 21 22 24
22 22 23 22 25 22 22 23 25 27 32 28 26 15 11 15 25 28 24 30 26 24 23 21 21 22 22 22 23 25 26 27 30 28 25 24 25 24
24 27 20 25 26 25 26 29 29 29 33 31 26 30 32 39 28 33 28 28 28 22 22 24 25 25 25 25 26 28 29 29 30 32 30 27 24 23
26 26 27 27 30 26 27 30 31 35 35 36 32 31 35 27 31 27 19 18 34 39 34 29 30 30 29 27 29 31 31 30 31 32 30 30 28 27
30 35 37 28 34 31 37 34 36 30 28 31 33 30 33 30 29 28 24 20 26 39 39 36 32 33 34 33 33 36 38 37 38 37 34 32 27 24
30 37 36 27 34 38 41 42 38 39 36 38 36 34 33 35 39 34 32 29 27 34 43 41 39 37 36 37 39 40 41 42 37 33 31 26 23 20
30 33 32 34 38 41 45 37 36 40 39 40 43 42 46 42 38 29 28 24 28 29 42 42 41 33 29 33 35 38 38 36 30 25 22 17 13 9
31 31 33 42 43 41 40 43 48 50 50 47 42 43 41 36 35 31 32 23 21 15 25 19 26 20 29 31 35 36 35 25 19 21 19 13 11 4
40 37 33 33 37 34 39 44 40 43 48 48 49 46 39 33 31 30 26 28 32 31 33 38 46 49 53 49 48 40 25 16 18 14 15 9 3 3
44 45 47 44 44 47 46 37 38 40 39 31 38 42 45 43 36 35 34 34 39 42 43 45 50 56 60 56 45 32 25 19 24 17 16 10 6 3
40 42 48 43 45 45 42 43 41 43 42 39 43 49 48 51 48 49 41 36 36 47 44 48 53 52 43 39 33 26 15 19 21 23 18 13 9 6
43 44 49 48 52 49 46 44 46 44 46 46 49 58 61 58 53 48 42 45 47 43 34 30 25 20 15 18 16 15 10 13 21 25 19 17 14 9
32 39 43 47 42 44 45 46 48 45 46 45 46 44 34 30 28 32 36 35 37 39 29 18 14 13 15 15 14 14 15 18 22 24 22 22 18 14
32 38 41 44 38 38 39 38 35 33 30 29 31 32 31 27 24 20 16 10 10 13 10 11 14 15 16 15 12 12 18 20 26 24 23 21 22 21
25 31 36 36 32 28 27 23 22 20 22 25 24 20 16 12 7 6 3 4 6 8 9 12 15 12 9 8 8 10 15 21 23 20 18 18 12 13
15 6 13 12 7 5 7 10 8 4 5 5 6 6 6 4 5 5 6 6 3 2 5 7 6 5 2 3 5 7 5 7 10 16 15 12 13 18
5 7 7 8 9 10 10 7 5 2 2 4 7 6 8 9 5 5 6 1 4 14 13 10 13 13 14 7 6 6 10 6 14 7 5 15 18 20
10 10 10 9 8 7 6 4 7 9 9 9 8 5 5 5 5 4 5 7 6 8 6 3 10 3 4 2 11 11 10 7 16 18 13 18 18 17
3 6 6 7 8 7 6 5 6 6 6 6 6 7 6 6 11 7 5 2 4 6 6 7 4 9 17 13 7 15 19 12 15 16 17 18 19 18
4 5 4 4 5 3 5 6 5 7 7 7 6 7 10 7 2 4 6 5 7 8 5 6 7 7 6 11 5 9 13 22 14 18 18 18 20 26
3 6 3 3 6 7 5 5 5 4 6 7 6 6 8 8 7 7 8 9 10 8 8 11 16 18 16 12 13 18 19 15 25 23 13 11 17 19
7 8 7 7 7 6 6 7 7 8 7 7 9 7 6 5 5 6 6 7 7 11 11 8 17 11 9 12 16 16 17 16 18 13 14 21 17 16
8 8 8 8 7 9 10 9 8 6 8 10 9 8 8 6 7 7 8 8 10 10 12 14 15 13 13 14 18 20 11 17 18 27 21 11 10 19
Wind_Direction_850mb
247 262 264 255 271 278 269 275 286 298 303 309 315 245 250 289 280 297 290 299 300 313 315 317 330 331 333 338 344 346 346 347 345 346 346 346 345 350
243 250 252 266 282 284 285 279 281 283 287 294 303 277 258 291 291 293 267 292 294 300 305 304 308 315 320 326 331 332 333 335 338 338 338 338 341 346
252 261 262 264 270 272 277 277 272 275 280 280 294 309 304 294 275 277 284 293 296 296 297 298 298 300 306 311 317 321 324 326 328 329 329 331 331 330
257 257 262 262 269 272 279 275 276 275 282 286 278 283 290 294 290 275 265 269 278 283 291 292 290 290 293 298 306 312 316 317 321 322 322 321 319 321
258 258 260 256 251 256 259 269 278 278 269 274 272 275 281 283 273 282 271 267 250 270 290 293 290 287 288 289 293 301 306 310 311 312 312 311 311 317
260 262 250 254 264 266 274 267 266 265 268 267 268 272 275 274 280 272 276 272 254 268 279 292 299 287 279 278 285 291 294 296 299 302 300 300 311 320
250 249 262 260 250 261 270 276 271 265 269 274 275 275 278 276 278 277 275 289 273 266 270 279 293 297 290 283 281 284 285 289 296 297 306 318 332 329
247 255 255 259 273 283 284 279 269 268 272 273 274 281 282 277 280 276 268 257 273 274 252 263 270 290 286 280 288 286 282 278 282 284 296 283 283 283
263 266 266 264 272 272 278 272 271 271 273 275 275 275 278 277 275 278 276 269 260 254 250 238 235 240 251 266 277 276 260 237 276 255 277 230 206 125
255 257 261 262 263 260 268 276 274 277 275 276 279 271 274 278 274 279 279 278 268 263 258 249 248 240 249 257 262 265 262 256 256 260 203 213 218 159
260 258 254 261 263 270 274 277 278 275 272 277 277 273 268 271 268 279 275 272 261 254 263 259 255 247 250 269 281 285 261 242 248 206 214 233 235 256
254 262 262 263 267 276 277 275 277 276 274 271 270 270 272 271 264 264 263 252 254 257 254 253 268 271 271 282 280 276 245 228 212 206 217 234 244 247
258 261 261 268 271 270 269 271 275 272 271 270 268 271 276 276 260 259 261 260 266 263 271 267 267 256 247 279 289 264 222 215 202 209 223 232 229 202
257 258 265 273 273 269 272 277 273 270 266 261 266 265 264 268 272 275 275 271 276 277 270 272 282 281 271 269 275 258 223 204 208 213 226 234 242 237
261 268 270 270 268 260 263 259 260 257 258 254 258 264 270 270 247 162 227 283 291 296 294 296 292 293 272 275 271 279 229 225 210 222 237 233 241 274
237 248 248 238 264 267 236 227 241 244 245 239 222 151 110 153 203 229 240 224 217 321 359 318 279 280 275 351 338 292 245 135 223 233 225 243 259 256
116 124 138 129 113 99 95 101 119 170 228 230 210 196 201 214 215 227 192 218 42 69 59 64 88 89 94 106 139 33 139 130 206 230 271 249 262 263
124 135 147 144 148 169 183 205 237 240 237 232 229 217 216 182 171 196 150 118 115 125 161 323 62 116 330 91 172 206 247 206 214 224 240 250 265 270
213 199 203 221 225 225 231 237 255 254 215 186 186 178 166 149 143 136 85 104 158 182 183 178 210 271 290 243 220 233 213 208 236 231 262 256 265 268
208 221 233 264 259 243 218 222 196 162 153 165 165 167 141 138 161 212 217 214 205 211 221 254 225 238 264 297 319 282 282 232 240 252 263 258 265 257
119 83 89 55 113 170 179 156 150 138 143 153 166 182 200 192 211 205 226 203 202 221 240 262 230 263 275 293 287 258 260 308 243 233 245 272 276 289
169 169 169 172 172 166 157 173 163 177 174 165 187 196 202 210 249 250 237 246 249 243 254 252 298 298 287 279 287 285 274 266 304 301 289 268 268 278
148 165 163 168 172 175 176 175 189 195 198 191 201 196 217 215 231 243 246 261 265 266 268 270 268 280 293 286 290 286 284 268 283 270 272 262 271 293